Location: Chena
(64.8152°N, 147.9227°W)
Time: 10:50:10
(UTC+00:00)

S-56A Canister/Altair - All Passes

Search period start: 01 March 2021 00:00
Search period end: 11 March 2021 00:00
Orbit: 632 x 2501 km, 38.9° (Epoch: 28 February)

Date Brightness Start Highest point End Pass type
(mag) Time Alt. Az. Time Alt. Az. Time Alt. Az.
01 Mar - 01:20:37 10° SSW 01:29:53 20° SSE 01:38:37 10° SE daylight
01 Mar - 03:22:58 10° SW 03:32:33 21° S 03:41:10 10° SSE daylight
01 Mar - 05:28:23 10° WSW 05:34:45 15° SSW 05:40:29 10° S visible
01 Mar - 22:52:16 10° SSE 22:54:48 11° SE 22:57:21 10° SE daylight
02 Mar - 00:47:48 10° SSW 00:56:52 19° SSE 01:05:36 10° ESE daylight
02 Mar - 02:49:40 10° SW 02:59:34 22° S 03:08:36 10° SE daylight
02 Mar - 04:54:30 10° WSW 05:01:55 16° SSW 05:08:37 10° S visible
03 Mar - 00:15:06 10° SSW 00:23:51 19° SSE 00:32:28 10° ESE daylight
03 Mar - 02:16:29 10° SW 02:26:32 22° S 02:35:55 10° SE daylight
03 Mar - 04:20:47 10° WSW 04:29:01 18° SSW 04:36:32 10° S visible
03 Mar - 23:42:34 10° S 23:50:52 18° SSE 23:59:13 10° ESE daylight
04 Mar - 01:43:24 10° SW 01:53:29 22° S 02:03:07 10° SE daylight
04 Mar - 03:47:13 10° WSW 03:56:06 19° SSW 04:04:16 10° SSE visible
04 Mar - 23:10:10 10° S 23:17:53 17° SSE 23:25:47 10° ESE daylight
05 Mar - 01:10:25 10° SW 01:20:25 22° S 01:30:14 10° SE daylight
05 Mar - 03:13:47 10° WSW 03:23:07 20° SSW 03:31:52 10° SSE daylight
05 Mar - 05:21:43 10° WSW 05:25:01 11° SW 05:28:12 10° SSW visible
05 Mar - 22:37:58 10° S 22:44:57 15° SSE 22:52:12 10° ESE daylight
06 Mar - 00:37:33 10° SSW 00:47:21 22° S 00:57:13 10° SE daylight
06 Mar - 02:40:29 10° SW 02:50:06 21° SSW 02:59:18 10° SSE daylight
06 Mar - 04:47:00 10° WSW 04:52:12 13° SW 04:57:11 10° SSW visible
06 Mar - 22:06:01 10° S 22:12:03 14° SE 22:18:23 10° ESE daylight
07 Mar - 00:04:47 10° SSW 00:14:18 22° SSE 00:24:06 10° SE daylight
07 Mar - 02:07:17 10° SW 02:17:04 22° SSW 02:26:39 10° SSE daylight
07 Mar - 04:12:54 10° WSW 04:19:20 14° SW 04:25:30 10° S visible
07 Mar - 21:34:24 10° SSE 21:39:12 13° SE 21:44:14 10° ESE daylight
07 Mar - 23:32:09 10° SSW 23:41:16 21° SSE 23:50:53 10° SE daylight
08 Mar - 01:34:11 10° SW 01:44:00 22° S 01:53:52 10° SSE daylight
08 Mar - 03:39:08 10° WSW 03:46:26 16° SSW 03:53:30 10° S daylight
08 Mar - 21:03:31 10° SSE 21:06:24 11° SE 21:09:23 10° SE daylight
08 Mar - 22:59:38 10° SSW 23:08:16 20° SSE 23:17:33 10° ESE daylight
09 Mar - 01:01:12 10° SW 01:10:57 22° S 01:20:58 10° SE daylight
09 Mar - 03:05:35 10° WSW 03:13:29 17° SSW 03:21:17 10° S daylight
09 Mar - 22:27:15 10° SSW 22:35:18 19° SSE 22:44:05 10° ESE daylight
10 Mar - 00:28:20 10° SW 00:37:54 22° S 00:47:58 10° SE daylight
10 Mar - 02:32:11 10° WSW 02:40:31 18° SSW 02:48:51 10° S daylight
10 Mar - 21:55:01 10° S 22:02:23 17° SSE 22:10:29 10° ESE daylight
